Location: SBMNH
(34.4407°N, 119.7157°W)
Time: 22:45:52
(UTC-07:00)

X-37B - Pass Details

Date: 16 August 2022
Orbit: 329 x 342 km, 45.0° (Epoch: 29 September)

Event Time Altitude Azimuth Distance (km) Brightness Sun altitude
Exits shadow 03:51:19 12° 60° (ENE) 1,158 3.9 -27.5°
Drops below altitude 10° 03:51:44 10° 67° (ENE) 1,279 4.1 -27.4°
Sets 03:54:07 0° 87° (E) 2,118 5.0 -27.1°
